Stündliche Wetter Celina

Heute, 28 Januar, Donnerstag

Zeit Temperatur Niederschläge Wind Luftdruck Luftfeuchtigkeit
00:00 -3°C° 0 mm 2 m/S 745 mmHg 88%
01:00 -4°C° 0 mm 3 m/S 745 mmHg 89%
02:00 -4°C° 0 mm 3 m/S 745 mmHg 88%
03:00 -4°C° 0 mm 3 m/S 744 mmHg 87%
04:00 -4°C° 0 mm 3 m/S 744 mmHg 86%
05:00 -4°C° 0 mm 3 m/S 743 mmHg 84%
06:00 -4°C° 0 mm 3 m/S 743 mmHg 83%
07:00 -4°C° 0 mm 3 m/S 742 mmHg 82%
08:00 -3°C° 0 mm 4 m/S 742 mmHg 80%
09:00 -2°C° 0 mm 4 m/S 741 mmHg 79%
10:00 -1°C° 0 mm 4 m/S 741 mmHg 77%
11:00 -1°C° 0 mm 4 m/S 740 mmHg 79%
12:00 0°C° 0 mm 4 m/S 740 mmHg 81%
13:00 +1°C° 0 mm 4 m/S 739 mmHg 83%
14:00 +2°C° 0.1 mm 3 m/S 739 mmHg 85%
15:00 +1°C° 0.1 mm 3 m/S 738 mmHg 88%
16:00 +1°C° 0.1 mm 3 m/S 738 mmHg 90%
17:00 +1°C° 0.3 mm 3 m/S 738 mmHg 93%
18:00 +1°C° 0.3 mm 2 m/S 737 mmHg 95%
19:00 +1°C° 0.3 mm 2 m/S 737 mmHg 98%
20:00 +1°C° 0.4 mm 2 m/S 737 mmHg 97%
21:00 0°C° 0.4 mm 3 m/S 737 mmHg 97%
22:00 -1°C° 0.4 mm 3 m/S 737 mmHg 96%
23:00 -1°C° 0 mm 3 m/S 737 mmHg 92%

Morgen, 29 Januar, Freitag

Zeit Temperatur Niederschläge Wind Luftdruck Luftfeuchtigkeit
00:00 -2°C° 0 mm 3 m/S 738 mmHg 89%
01:00 -2°C° 0 mm 3 m/S 738 mmHg 86%
02:00 -4°C° 0 mm 3 m/S 738 mmHg 85%
03:00 -4°C° 0 mm 4 m/S 738 mmHg 84%
04:00 -4°C° 0 mm 4 m/S 738 mmHg 83%
05:00 -4°C° 0 mm 3 m/S 738 mmHg 83%
06:00 -5°C° 0 mm 3 m/S 738 mmHg 84%
07:00 -5°C° 0 mm 3 m/S 738 mmHg 84%
08:00 -3°C° 0 mm 2 m/S 738 mmHg 80%
09:00 -3°C° 0 mm 2 m/S 737 mmHg 76%
10:00 -2°C° 0 mm 2 m/S 737 mmHg 71%
11:00 -1°C° 0 mm 2 m/S 737 mmHg 66%
12:00 -1°C° 0 mm 2 m/S 736 mmHg 60%
13:00 +2°C° 0 mm 1 m/S 735 mmHg 55%
14:00 +1°C° 0.1 mm 2 m/S 735 mmHg 63%
15:00 -1°C° 0.1 mm 3 m/S 734 mmHg 72%
16:00 -1°C° 0.1 mm 3 m/S 733 mmHg 80%
17:00 -2°C° 1.1 mm 4 m/S 733 mmHg 86%
18:00 -2°C° 1.1 mm 4 m/S 732 mmHg 92%
19:00 -2°C° 1.1 mm 4 m/S 732 mmHg 97%
20:00 -3°C° 0.7 mm 4 m/S 732 mmHg 97%
21:00 -2°C° 0.7 mm 3 m/S 732 mmHg 97%
22:00 -2°C° 0.7 mm 3 m/S 733 mmHg 97%
23:00 -2°C° 0.1 mm 3 m/S 733 mmHg 96%

übermorgen, 30 Januar, Samstag

Zeit Temperatur Niederschläge Wind Luftdruck Luftfeuchtigkeit
00:00 -3°C° 0.1 mm 2 m/S 733 mmHg 96%
01:00 -3°C° 0.1 mm 2 m/S 733 mmHg 96%
02:00 -3°C° 0.1 mm 2 m/S 733 mmHg 96%
03:00 -4°C° 0.1 mm 2 m/S 732 mmHg 96%
04:00 -4°C° 0.1 mm 2 m/S 732 mmHg 96%
05:00 -4°C° 0.7 mm 3 m/S 731 mmHg 96%
06:00 -4°C° 0.7 mm 3 m/S 730 mmHg 97%
07:00 -3°C° 0.7 mm 4 m/S 730 mmHg 97%
08:00 -4°C° 0.7 mm 5 m/S 730 mmHg 96%
09:00 -4°C° 0.7 mm 7 m/S 731 mmHg 95%
10:00 -5°C° 0.7 mm 8 m/S 732 mmHg 94%
11:00 -5°C° 0.3 mm 8 m/S 733 mmHg 94%
12:00 -4°C° 0.3 mm 7 m/S 734 mmHg 93%
13:00 -4°C° 0.3 mm 7 m/S 735 mmHg 92%
14:00 -4°C° 0 mm 6 m/S 735 mmHg 92%
15:00 -5°C° 0 mm 5 m/S 736 mmHg 91%
16:00 -4°C° 0 mm 4 m/S 737 mmHg 91%
17:00 -5°C° 0 mm 3 m/S 737 mmHg 92%
18:00 -6°C° 0 mm 3 m/S 738 mmHg 93%
19:00 -5°C° 0 mm 2 m/S 738 mmHg 94%
20:00 -6°C° 0 mm 2 m/S 739 mmHg 95%
21:00 -6°C° 0 mm 2 m/S 739 mmHg 95%
22:00 -6°C° 0 mm 2 m/S 739 mmHg 96%
23:00 -6°C° 0 mm 1 m/S 739 mmHg 96%

31 Januar, Sonntag

Zeit Temperatur Niederschläge Wind Luftdruck Luftfeuchtigkeit
00:00 -6°C° 0 mm 1 m/S 739 mmHg 96%
01:00 -6°C° 0 mm 1 m/S 740 mmHg 95%
02:00 -6°C° 0 mm 1 m/S 739 mmHg 95%
03:00 -6°C° 0 mm 0 m/S 739 mmHg 94%
04:00 -7°C° 0 mm 0 m/S 739 mmHg 93%
05:00 -6°C° 0 mm 0 m/S 739 mmHg 93%
06:00 -6°C° 0 mm 1 m/S 740 mmHg 93%
07:00 -6°C° 0 mm 1 m/S 740 mmHg 93%
08:00 -4°C° 0 mm 1 m/S 740 mmHg 92%
09:00 -5°C° 0 mm 2 m/S 740 mmHg 92%
10:00 -4°C° 0 mm 2 m/S 739 mmHg 91%
11:00 -4°C° 0 mm 2 m/S 739 mmHg 89%
12:00 -3°C° 0 mm 2 m/S 739 mmHg 86%
13:00 -2°C° 0 mm 3 m/S 739 mmHg 84%
14:00 -2°C° 0 mm 3 m/S 738 mmHg 84%
15:00 -4°C° 0 mm 3 m/S 738 mmHg 84%
16:00 -5°C° 0 mm 3 m/S 737 mmHg 84%
17:00 -5°C° 0 mm 3 m/S 737 mmHg 85%
18:00 -5°C° 0 mm 3 m/S 737 mmHg 85%
19:00 -6°C° 0 mm 3 m/S 736 mmHg 85%
20:00 -6°C° 0 mm 3 m/S 736 mmHg 85%
21:00 -6°C° 0 mm 3 m/S 736 mmHg 85%
22:00 -6°C° 0 mm 3 m/S 735 mmHg 85%
23:00 -6°C° 0 mm 3 m/S 735 mmHg 85%

1 Februar, Montag

Zeit Temperatur Niederschläge Wind Luftdruck Luftfeuchtigkeit
00:00 -6°C° 0 mm 3 m/S 735 mmHg 85%
01:00 -6°C° 0 mm 3 m/S 734 mmHg 85%
02:00 -5°C° 0 mm 2 m/S 734 mmHg 85%
03:00 -5°C° 0 mm 2 m/S 734 mmHg 85%
04:00 -5°C° 0 mm 2 m/S 733 mmHg 86%
05:00 -5°C° 0 mm 2 m/S 733 mmHg 85%
06:00 -5°C° 0 mm 2 m/S 734 mmHg 84%
07:00 -6°C° 0 mm 2 m/S 734 mmHg 84%
08:00 -3°C° 0 mm 1 m/S 734 mmHg 83%
09:00 -2°C° 0 mm 1 m/S 734 mmHg 82%
10:00 -2°C° 0 mm 0 m/S 734 mmHg 81%
11:00 -1°C° 0 mm 1 m/S 735 mmHg 81%
12:00 0°C° 0 mm 1 m/S 735 mmHg 81%
13:00 0°C° 0 mm 1 m/S 735 mmHg 81%
14:00 -3°C° 0 mm 2 m/S 736 mmHg 84%
15:00 -3°C° 0 mm 2 m/S 736 mmHg 87%
16:00 -4°C° 0 mm 2 m/S 737 mmHg 90%
17:00 -4°C° 0 mm 2 m/S 738 mmHg 91%
18:00 -5°C° 0 mm 3 m/S 739 mmHg 92%
19:00 -6°C° 0 mm 3 m/S 739 mmHg 92%
20:00 -6°C° 0 mm 3 m/S 740 mmHg 92%
21:00 -7°C° 0 mm 3 m/S 741 mmHg 92%
22:00 -6°C° 0 mm 2 m/S 742 mmHg 92%
23:00 -6°C° 0 mm 2 m/S 742 mmHg 92%

2 Februar, Dienstag

Zeit Temperatur Niederschläge Wind Luftdruck Luftfeuchtigkeit
00:00 -6°C° 0 mm 2 m/S 743 mmHg 92%
01:00 -6°C° 0 mm 2 m/S 743 mmHg 93%
02:00 -6°C° 0 mm 2 m/S 744 mmHg 93%
03:00 -6°C° 0 mm 2 m/S 744 mmHg 92%
04:00 -6°C° 0 mm 1 m/S 745 mmHg 92%
05:00 -6°C° 0 mm 1 m/S 745 mmHg 92%
06:00 -6°C° 0 mm 1 m/S 745 mmHg 91%
07:00 -6°C° 0 mm 1 m/S 746 mmHg 90%
08:00 -6°C° 0 mm 2 m/S 746 mmHg 89%
09:00 -5°C° 0 mm 2 m/S 746 mmHg 89%
10:00 -5°C° 0 mm 3 m/S 745 mmHg 88%
11:00 -4°C° 0 mm 4 m/S 745 mmHg 87%
12:00 -3°C° 0 mm 4 m/S 744 mmHg 86%
13:00 -2°C° 0 mm 5 m/S 743 mmHg 84%
14:00 -1°C° 0 mm 5 m/S 742 mmHg 85%
15:00 -1°C° 0 mm 5 m/S 742 mmHg 86%
16:00 -1°C° 0 mm 5 m/S 741 mmHg 86%
17:00 -1°C° 0.6 mm 6 m/S 740 mmHg 88%
18:00 -1°C° 0.6 mm 7 m/S 739 mmHg 90%
19:00 0°C° 0.6 mm 7 m/S 738 mmHg 92%
20:00 0°C° 1 mm 7 m/S 738 mmHg 92%
21:00 +2°C° 1 mm 7 m/S 738 mmHg 93%
22:00 +2°C° 1 mm 7 m/S 738 mmHg 94%
23:00 +2°C° 0 mm 7 m/S 738 mmHg 93%
Mehr zeigen

Wir brauchen deine Erlaubnis

Meteoprog und unser Service Anbieter werden persönliche Daten aufbewahren, so wie Cookies, Geräte Bezeichnung oder ähnliche Technologien von deinem Gerät und Prozess, so wie Persönliche Daten Inhalte und Werbungen, genauso wie social Media und den Verkehr zu analysieren.

  • Aufbewahrung und/oder Zugang zu deiner Geräte Informationen.

    Cookies, Geräte Bezeichnung oder andere Informationen, können aufbewahrt oder Zugang zu deinem Gerät erhalten, für den Grund, der oben angegeben wird.

  • Personalisierte Werbung und Inhalte, Messungen, Einblick in das Publikum und Produkt Entwicklung.

    Werbungen und Inhalte können personalisiert werden, basierend auf ein Profil. Mehr Daten können besser personalisierte Werbungen und Inhalte hinzufügen. Werbung und Inhalte können gezeigt und gemessen werden. Einblicke über das Publikum, welche die Werbung gesehen haben und den Inhalt, können abgeleitet werden. So wie Daten können genutzt werden, um es zu verbessern oder die Benutzer Erfahrung zu verbessern das System und die Software.

Wenn du “Ich stimme zu” klickst, erlaubst du uns, die Cookies zu benutzen die Geräte Bezeichnung, den Web oder ähnliche Technologien zu benutzen. Deine Settings, können in deinem Gerät bei deinem Browser geändert werden.

Für den bestimmten Zweck, berechtigten Interessen beruhen darauf, mehr als auf den Inhalt. Du kannst mehr darüber in unseren Privaten und Cookie Politik lesen.